• In Czech Republic
  • List of Countries
  • For 7 days
  • Water Temperature
  • Satellite Maps
  • Weather Map
  • Weather Widgets
  • user-avatar
    Login

    Hourly Weather Dhaka

    Today, 24 February, Saturday

    Time Temperature Precipitation Wind Pressure Humidity
    00:00 +25°C° 0 mm 2 mps 757 mmHg 65%
    01:00 +24°C° 0 mm 2 mps 757 mmHg 66%
    02:00 +24°C° 0 mm 2 mps 757 mmHg 68%
    03:00 +23°C° 0 mm 2 mps 757 mmHg 69%
    04:00 +23°C° 0 mm 2 mps 758 mmHg 71%
    05:00 +23°C° 0 mm 2 mps 758 mmHg 72%
    06:00 +23°C° 0 mm 2 mps 758 mmHg 64%
    07:00 +25°C° 0 mm 2 mps 759 mmHg 59%
    08:00 +27°C° 0 mm 2 mps 759 mmHg 53%
    09:00 +28°C° 0 mm 2 mps 760 mmHg 47%
    10:00 +30°C° 0 mm 2 mps 759 mmHg 41%
    11:00 +32°C° 0 mm 2 mps 759 mmHg 35%
    12:00 +35°C° 0 mm 1 mps 759 mmHg 30%
    13:00 +35°C° 0 mm 1 mps 758 mmHg 28%
    14:00 +36°C° 0 mm 2 mps 758 mmHg 26%
    15:00 +37°C° 0 mm 2 mps 757 mmHg 24%
    16:00 +35°C° 0 mm 2 mps 757 mmHg 27%
    17:00 +33°C° 0 mm 1 mps 757 mmHg 29%
    18:00 +30°C° 0 mm 1 mps 757 mmHg 37%
    19:00 +30°C° 0 mm 2 mps 758 mmHg 40%
    20:00 +29°C° 0 mm 2 mps 758 mmHg 42%
    21:00 +28°C° 0 mm 3 mps 758 mmHg 45%
    22:00 +27°C° 0 mm 2 mps 758 mmHg 47%
    23:00 +27°C° 0 mm 2 mps 758 mmHg 50%

    Tomorrow, 25 February, Sunday

    Time Temperature Precipitation Wind Pressure Humidity
    00:00 +26°C° 0 mm 2 mps 758 mmHg 52%
    01:00 +26°C° 0 mm 2 mps 758 mmHg 54%
    02:00 +25°C° 0 mm 2 mps 758 mmHg 55%
    03:00 +24°C° 0 mm 2 mps 758 mmHg 57%
    04:00 +24°C° 0 mm 2 mps 758 mmHg 58%
    05:00 +24°C° 0 mm 2 mps 758 mmHg 59%
    06:00 +23°C° 0 mm 2 mps 758 mmHg 60%
    07:00 +25°C° 0 mm 2 mps 759 mmHg 55%
    08:00 +27°C° 0 mm 2 mps 759 mmHg 51%
    09:00 +29°C° 0 mm 2 mps 759 mmHg 46%
    10:00 +31°C° 0 mm 2 mps 759 mmHg 41%
    11:00 +32°C° 0 mm 2 mps 759 mmHg 36%
    12:00 +35°C° 0 mm 2 mps 758 mmHg 30%
    13:00 +36°C° 0 mm 3 mps 758 mmHg 28%
    14:00 +37°C° 0 mm 3 mps 757 mmHg 25%
    15:00 +38°C° 0 mm 3 mps 756 mmHg 23%
    16:00 +36°C° 0 mm 2 mps 756 mmHg 25%
    17:00 +35°C° 0 mm 2 mps 756 mmHg 27%
    18:00 +32°C° 0 mm 1 mps 755 mmHg 28%
    19:00 +31°C° 0 mm 2 mps 756 mmHg 32%
    20:00 +30°C° 0 mm 2 mps 756 mmHg 35%
    21:00 +29°C° 0 mm 3 mps 756 mmHg 38%
    22:00 +28°C° 0 mm 3 mps 756 mmHg 40%
    23:00 +27°C° 0 mm 3 mps 756 mmHg 42%

    Day after tomorrow, 26 February, Monday

    Time Temperature Precipitation Wind Pressure Humidity
    00:00 +27°C° 0 mm 3 mps 756 mmHg 44%
    01:00 +26°C° 0 mm 3 mps 756 mmHg 44%
    02:00 +26°C° 0 mm 3 mps 756 mmHg 43%
    03:00 +26°C° 0 mm 2 mps 756 mmHg 43%
    04:00 +26°C° 0.1 mm 2 mps 756 mmHg 44%
    05:00 +25°C° 0.1 mm 2 mps 756 mmHg 46%
    06:00 +25°C° 0.1 mm 2 mps 756 mmHg 48%
    07:00 +26°C° 0.1 mm 2 mps 757 mmHg 48%
    08:00 +27°C° 0.1 mm 2 mps 758 mmHg 48%
    09:00 +28°C° 0.1 mm 3 mps 759 mmHg 48%
    10:00 +28°C° 0.1 mm 3 mps 758 mmHg 46%
    11:00 +29°C° 0.1 mm 3 mps 758 mmHg 45%
    12:00 +30°C° 0.1 mm 3 mps 758 mmHg 43%
    13:00 +31°C° 0 mm 2 mps 757 mmHg 38%
    14:00 +32°C° 0 mm 2 mps 756 mmHg 34%
    15:00 +34°C° 0 mm 1 mps 755 mmHg 29%
    16:00 +34°C° 0 mm 2 mps 755 mmHg 32%
    17:00 +32°C° 0 mm 2 mps 755 mmHg 34%
    18:00 +30°C° 0 mm 2 mps 755 mmHg 36%
    19:00 +30°C° 0 mm 2 mps 756 mmHg 38%
    20:00 +29°C° 0 mm 2 mps 756 mmHg 41%
    21:00 +28°C° 0 mm 2 mps 757 mmHg 44%
    22:00 +27°C° 0 mm 2 mps 757 mmHg 47%
    23:00 +26°C° 0 mm 2 mps 757 mmHg 50%

    27 February, Tuesday

    Time Temperature Precipitation Wind Pressure Humidity
    00:00 +25°C° 0 mm 2 mps 757 mmHg 52%
    01:00 +25°C° 0 mm 2 mps 757 mmHg 54%
    02:00 +24°C° 0 mm 1 mps 757 mmHg 56%
    03:00 +23°C° 0 mm 1 mps 756 mmHg 58%
    04:00 +23°C° 0 mm 1 mps 757 mmHg 59%
    05:00 +23°C° 0 mm 1 mps 757 mmHg 60%
    06:00 +21°C° 0 mm 2 mps 757 mmHg 62%
    07:00 +24°C° 0 mm 1 mps 758 mmHg 57%
    08:00 +26°C° 0 mm 1 mps 758 mmHg 52%
    09:00 +28°C° 0 mm 1 mps 759 mmHg 47%
    10:00 +30°C° 0 mm 1 mps 758 mmHg 42%
    11:00 +32°C° 0 mm 1 mps 758 mmHg 37%
    12:00 +33°C° 0 mm 1 mps 758 mmHg 31%
    13:00 +35°C° 0 mm 2 mps 757 mmHg 29%
    14:00 +36°C° 0 mm 2 mps 756 mmHg 26%
    15:00 +36°C° 0 mm 3 mps 755 mmHg 23%
    16:00 +35°C° 0 mm 3 mps 755 mmHg 26%
    17:00 +33°C° 0 mm 3 mps 754 mmHg 29%
    18:00 +31°C° 0 mm 2 mps 754 mmHg 32%
    19:00 +30°C° 0 mm 2 mps 755 mmHg 33%
    20:00 +28°C° 0 mm 2 mps 756 mmHg 35%
    21:00 +27°C° 0 mm 2 mps 756 mmHg 37%
    22:00 +27°C° 0 mm 2 mps 756 mmHg 40%
    23:00 +26°C° 0 mm 2 mps 756 mmHg 43%

    28 February, Wednesday

    Time Temperature Precipitation Wind Pressure Humidity
    00:00 +26°C° 0 mm 2 mps 756 mmHg 45%
    01:00 +25°C° 0 mm 2 mps 756 mmHg 49%
    02:00 +25°C° 0 mm 1 mps 756 mmHg 53%
    03:00 +24°C° 0 mm 1 mps 755 mmHg 57%
    04:00 +24°C° 0 mm 1 mps 756 mmHg 59%
    05:00 +23°C° 0 mm 1 mps 756 mmHg 61%
    06:00 +23°C° 0 mm 1 mps 756 mmHg 62%
    07:00 +25°C° 0 mm 1 mps 756 mmHg 57%
    08:00 +27°C° 0 mm 2 mps 757 mmHg 52%
    09:00 +29°C° 0 mm 2 mps 758 mmHg 46%
    10:00 +31°C° 0 mm 2 mps 757 mmHg 41%
    11:00 +32°C° 0 mm 2 mps 757 mmHg 36%
    12:00 +35°C° 0 mm 2 mps 756 mmHg 31%
    13:00 +36°C° 0 mm 2 mps 755 mmHg 28%
    14:00 +37°C° 0 mm 2 mps 754 mmHg 25%
    15:00 +37°C° 0 mm 2 mps 753 mmHg 22%
    16:00 +36°C° 0 mm 2 mps 753 mmHg 24%
    17:00 +34°C° 0 mm 1 mps 753 mmHg 26%
    18:00 +32°C° 0 mm 1 mps 753 mmHg 28%
    19:00 +31°C° 0 mm 2 mps 754 mmHg 32%
    20:00 +30°C° 0 mm 3 mps 754 mmHg 36%
    21:00 +29°C° 0 mm 4 mps 755 mmHg 40%
    22:00 +28°C° 0 mm 4 mps 755 mmHg 43%
    23:00 +27°C° 0 mm 3 mps 755 mmHg 47%

    1 March, Thursday

    Time Temperature Precipitation Wind Pressure Humidity
    00:00 +26°C° 0 mm 3 mps 755 mmHg 50%
    01:00 +26°C° 0 mm 3 mps 754 mmHg 53%
    02:00 +25°C° 0 mm 3 mps 754 mmHg 55%
    03:00 +24°C° 0 mm 3 mps 754 mmHg 58%
    04:00 +24°C° 0 mm 3 mps 754 mmHg 61%
    05:00 +24°C° 0 mm 3 mps 755 mmHg 64%
    06:00 +23°C° 0 mm 2 mps 755 mmHg 67%
    07:00 +25°C° 0 mm 2 mps 755 mmHg 61%
    08:00 +27°C° 0 mm 2 mps 756 mmHg 55%
    09:00 +29°C° 0 mm 2 mps 757 mmHg 49%
    10:00 +31°C° 0 mm 2 mps 756 mmHg 43%
    11:00 +34°C° 0 mm 3 mps 756 mmHg 37%
    12:00 +36°C° 0 mm 3 mps 755 mmHg 31%
    13:00 +36°C° 0 mm 3 mps 754 mmHg 28%
    14:00 +37°C° 0 mm 3 mps 753 mmHg 25%
    15:00 +38°C° 0 mm 4 mps 752 mmHg 22%
    16:00 +36°C° 0 mm 3 mps 752 mmHg 24%
    17:00 +35°C° 0 mm 2 mps 752 mmHg 26%
    18:00 +32°C° 0 mm 2 mps 752 mmHg 28%
    19:00 +31°C° 0 mm 2 mps 753 mmHg 35%
    20:00 +29°C° 0 mm 2 mps 753 mmHg 42%
    21:00 +28°C° 0 mm 3 mps 754 mmHg 48%
    22:00 +27°C° 0 mm 3 mps 754 mmHg 54%
    23:00 +26°C° 0 mm 2 mps 754 mmHg 60%
    Show more